Weather reports worldwide

Advertisment
Eskdalemuir, United Kingdom (3162): temperature & dewpoint: 13.01.2019 09:00:00 - 19.01.2019 09:00:00 (GMT)Eskdalemuir, United Kingdom (3162): temperature -20cm & temperature -100cm: 13.01.2019 09:00:00 - 19.01.2019 09:00:00 (GMT)Eskdalemuir, United Kingdom (3162): wind speed & gusts: 13.01.2019 09:00:00 - 19.01.2019 09:00:00 (GMT)Eskdalemuir, United Kingdom (3162): wind direction: 13.01.2019 09:00:00 - 19.01.2019 09:00:00 (GMT)Eskdalemuir, United Kingdom (3162): reduced air pressure: 13.01.2019 09:00:00 - 19.01.2019 09:00:00 (GMT)Eskdalemuir, United Kingdom (3162): visibility: 13.01.2019 09:00:00 - 19.01.2019 09:00:00 (GMT)Eskdalemuir, United Kingdom (3162): sunshine duration: 13.01.2019 09:00:00 - 19.01.2019 09:00:00 (GMT)Eskdalemuir, United Kingdom (3162): precipitation: 13.01.2019 09:00:00 - 19.01.2019 09:00:00 (GMT)
Date & Time tt [°C] td [°C] tt -20cm [°C] tt -100cm [°C] ff [km/h] ff [kn] fx [km/h] fx [kn] dd ppp [hPa] vv [km] sd [min] rr [mm]
19.01.2019 09:00:00 0,8 0,3 - - 4 2 - - N 1008,8 4,9 0 0,0
19.01.2019 08:00:00 0,7 0,3 - - 5 3 - - N 1008,2 3,9 0 0,0
19.01.2019 07:00:00 0,6 0,2 - - 2 1 - - NW 1008,0 4,9 0 0,0
19.01.2019 06:00:00 0,6 0,2 - - 5 3 - - NNW 1007,8 5 0 0,0
19.01.2019 05:00:00 0,7 0,2 - - 5 3 - - NNW 1008,0 6 0 0,0
19.01.2019 04:00:00 0,5 0,0 - - 5 3 - - N 1008,1 5 0 0,0
19.01.2019 03:00:00 0,7 0,1 - - 4 2 - - N 1008,1 5 0 0,0
19.01.2019 02:00:00 0,9 0,1 - - 4 2 - - N 1008,2 9 0 0,0
19.01.2019 01:00:00 0,8 0,2 - - 4 2 - - S 1008,4 10 0 0,0
19.01.2019 00:00:00 0,8 0,3 - - 0 0 - - N 1008,7 4,8 - 0,2
18.01.2019 23:00:00 0,8 0,4 - - 8 4 - - SSE 1008,7 3,9 0 0,2
18.01.2019 22:00:00 1,1 0,4 - - 5 3 - - SSE 1008,8 6 0 0,4
18.01.2019 21:00:00 0,7 0,4 - - 5 3 - - SSE 1008,8 4,1 0 0,4
18.01.2019 20:00:00 0,6 0,3 - - 9 5 - - SSE 1009,0 1,5 0 0,4
18.01.2019 19:00:00 0,9 0,1 - - 8 4 - - SSE 1009,0 5 0 0,0
18.01.2019 18:00:00 1,1 0,1 - - 11 6 - - SSE 1009,1 9 0 0,2
18.01.2019 17:00:00 1,1 -0,1 - - 9 5 - - SSE 1009,5 15 0 0,0
18.01.2019 16:00:00 1,5 -0,8 - - 15 8 - - SSE 1009,9 15 0 0,0
18.01.2019 15:00:00 1,9 -1,9 - - 15 8 - - SSE 1010,3 35 6 0,0
18.01.2019 14:00:00 2,2 -3,0 - - 13 7 - - SSE 1010,6 30 42 0,0
18.01.2019 13:00:00 2,3 -3,6 - - 13 7 - - SE 1011,3 30 54 0,0
18.01.2019 12:00:00 0,6 -3,8 - - 2 1 - - S 1012,5 30 0 0,0
18.01.2019 11:00:00 -0,7 -3,0 - - 2 1 - - WSW 1013,3 30 42 0,0
18.01.2019 10:00:00 -3,5 -4,3 - - 5 3 - - NNW 1013,9 25 24 0,0
18.01.2019 09:00:00 -4,8 -5,6 5,7 7,0 4 2 - - NNW 1014,3 30 0 0,0
18.01.2019 08:00:00 -4,9 -5,6 - - 4 2 - - NNW 1014,6 35 0 0,0
18.01.2019 07:00:00 -5,4 -6,1 - - 4 2 - - NNW 1014,9 26 0 0,0
18.01.2019 06:00:00 -5,2 -6,0 - - 4 2 - - NNW 1015,3 27 0 0,0
18.01.2019 05:00:00 -4,9 -5,5 - - 4 2 - - NW 1015,7 28 0 0,0
18.01.2019 04:00:00 -4,5 -5,0 - - 4 2 - - NW 1016,0 23 0 0,0
18.01.2019 03:00:00 -4,4 -5,0 - - 2 1 - - NNW 1016,7 30 0 0,0
18.01.2019 02:00:00 -4,4 -5,1 - - 4 2 - - NNW 1017,4 30 0 0,0
18.01.2019 01:00:00 -4,0 -4,8 - - 2 1 - - N 1017,8 30 0 0,0
18.01.2019 00:00:00 -3,8 -4,7 - - 2 1 - - WNW 1018,0 35 - 0,0
17.01.2019 23:00:00 -3,3 -4,2 - - 4 2 - - W 1018,2 40 0 0,0
17.01.2019 22:00:00 -3,1 -4,4 - - 2 1 - - NNW 1018,5 35 0 0,0
17.01.2019 21:00:00 -2,8 -4,3 - - 2 1 - - W 1018,6 40 0 0,0
17.01.2019 20:00:00 -2,6 -4,1 - - 5 3 - - NW 1018,2 30 0 0,0
17.01.2019 19:00:00 -3,3 -5,2 - - 8 4 - - N 1018,0 40 0 0,0
17.01.2019 18:00:00 -1,6 -4,4 - - 4 2 - - NNW 1017,4 45 0 0,0
17.01.2019 17:00:00 -0,7 -4,4 - - 5 3 - - NW 1017,1 45 0 0,0
17.01.2019 16:00:00 0,2 -4,1 - - 5 3 - - NNE 1016,5 45 24 0,0
17.01.2019 15:00:00 1,9 -3,6 - - 8 4 - - WNW 1015,8 50 60 0,0
17.01.2019 14:00:00 2,4 -4,6 - - 16 9 - - NNW 1015,3 45 60 0,0
17.01.2019 13:00:00 2,3 -3,7 - - 24 13 - - NNW 1014,9 40 60 0,0
17.01.2019 12:00:00 1,9 -4,6 - - 21 11 - - NW 1014,2 45 60 0,0
17.01.2019 11:00:00 1,4 -5,8 - - 29 16 - - NW 1013,4 45 60 0,0
17.01.2019 10:00:00 0,6 -4,2 - - 24 13 - - NNW 1013,0 50 54 0,0
17.01.2019 09:00:00 -0,2 -4,8 6,2 6,9 22 12 - - NW 1012,3 60 0 0,0
17.01.2019 08:00:00 -0,1 -5,0 - - 34 18 52 28 NW 1010,9 50 0 0,0
17.01.2019 07:00:00 -0,9 -5,8 - - 22 12 - - WNW 1010,0 50 0 0,0
17.01.2019 06:00:00 -1,1 -6,4 - - 22 12 - - WNW 1008,9 50 0 0,0
17.01.2019 05:00:00 -0,9 -6,2 - - 24 13 - - NW 1007,7 50 0 0,0
17.01.2019 04:00:00 -1,0 -6,1 - - 24 13 - - NW 1007,3 50 0 0,0
17.01.2019 03:00:00 -0,8 -6,0 - - 24 13 - - NW 1006,3 50 0 0,0
17.01.2019 02:00:00 -0,3 -5,0 - - 24 13 50 27 NW 1005,0 50 0 0,0
17.01.2019 01:00:00 0,8 -4,0 - - 28 15 55 30 NNW 1003,7 50 0 0,0
17.01.2019 00:00:00 2,0 -2,1 - - 31 17 50 27 NNW 1001,9 50 - 0,0
16.01.2019 23:00:00 2,4 -0,3 - - 22 12 - - NW 1000,7 50 0 0,0
16.01.2019 22:00:00 1,9 -0,1 - - 15 8 - - NW 999,8 28 0 0,0
16.01.2019 21:00:00 1,9 0,0 - - 21 11 - - W 998,9 50 0 0,0
16.01.2019 20:00:00 1,6 0,6 - - 8 4 - - WNW 998,6 50 0 0,0
16.01.2019 19:00:00 2,1 0,3 - - 21 11 - - W 997,7 50 0 0,2
16.01.2019 18:00:00 2,0 0,5 - - 18 10 - - WSW 997,5 50 0 0,0
16.01.2019 17:00:00 1,9 0,5 - - 16 9 - - WSW 997,3 50 0 0,0
16.01.2019 16:00:00 2,1 1,2 - - 16 9 - - W 997,1 35 0 1,0
16.01.2019 15:00:00 3,0 1,2 - - 22 12 - - WSW 996,8 30 18 0,6
16.01.2019 14:00:00 3,6 2,0 - - 22 12 - - W 996,9 10 36 0,6
16.01.2019 13:00:00 4,8 1,2 - - 24 13 46 25 WSW 997,1 30 48 0,0
16.01.2019 12:00:00 4,2 1,0 - - 22 12 - - WSW 997,5 25 54 0,0
16.01.2019 11:00:00 3,1 1,4 - - 24 13 55 30 W 998,0 25 18 0,2
16.01.2019 10:00:00 4,0 2,0 - - 21 11 - - WSW 997,6 30 0 0,4
16.01.2019 09:00:00 4,4 2,1 6,2 6,9 22 12 - - W 997,2 25 0 0,2
16.01.2019 08:00:00 5,0 3,4 - - 29 16 46 25 W 997,4 9 0 0,2
16.01.2019 07:00:00 5,2 3,7 - - 21 11 52 28 WSW 996,7 50 0 1,2
16.01.2019 06:00:00 6,4 4,5 - - 31 17 54 29 WSW 996,5 45 0 1,0
16.01.2019 05:00:00 7,0 6,2 - - 31 17 55 30 SSW 996,7 4,2 0 0,4
16.01.2019 04:00:00 7,1 5,6 - - 34 18 61 33 SSW 998,0 26 0 0,0
16.01.2019 03:00:00 7,2 6,1 - - 35 19 63 34 SW 998,8 9 0 0,4
16.01.2019 02:00:00 7,5 5,7 - - 35 19 55 30 SW 999,8 30 0 0,0
16.01.2019 01:00:00 7,4 5,7 - - 37 20 59 32 SSW 1001,0 40 0 0,0
16.01.2019 00:00:00 7,2 5,8 - - 28 15 55 30 SSW 1002,0 45 - 0,0
15.01.2019 23:00:00 7,3 6,3 - - 29 16 48 26 SSW 1003,1 27 0 0,2
15.01.2019 22:00:00 7,3 6,4 - - 35 19 59 32 SSW 1004,0 30 0 0,6
15.01.2019 21:00:00 7,3 6,2 - - 34 18 57 31 SW 1004,7 28 0 0,0
15.01.2019 20:00:00 7,2 6,4 - - 28 15 54 29 SSW 1005,0 6 0 0,4
15.01.2019 19:00:00 6,8 6,2 - - 24 13 - - SSW 1006,2 13 0 0,0
15.01.2019 18:00:00 6,7 6,1 - - 21 11 - - SSW 1007,3 5 0 0,0
15.01.2019 17:00:00 6,8 5,6 - - 18 10 - - SSW 1008,3 20 0 0,0
15.01.2019 16:00:00 7,0 5,5 - - 21 11 - - SSW 1008,9 22 0 0,0
15.01.2019 15:00:00 7,4 5,2 - - 24 13 - - SSW 1009,4 25 0 0,0
15.01.2019 14:00:00 7,6 5,5 - - 24 13 - - SSW 1009,8 30 0 0,0
15.01.2019 13:00:00 7,4 5,8 - - 22 12 - - SSW 1010,7 30 0 0,0
15.01.2019 12:00:00 7,4 5,9 - - 18 10 - - SSW 1011,7 25 0 0,0
15.01.2019 11:00:00 7,0 5,9 - - 16 9 - - S 1012,5 18 0 0,0
15.01.2019 10:00:00 7,1 5,9 - - 11 6 - - S 1012,7 20 0 0,0
15.01.2019 09:00:00 8,0 5,8 6,0 6,9 16 9 - - SW 1012,6 20 0 0,0
15.01.2019 08:00:00 7,5 6,3 - - 22 12 - - WSW 1012,1 15 0 0,2
15.01.2019 07:00:00 7,2 6,5 - - 24 13 - - SW 1012,1 8 0 0,0
15.01.2019 06:00:00 7,1 6,3 - - 24 13 - - WSW 1012,5 5 0 0,2
15.01.2019 05:00:00 6,5 6,0 - - 16 9 - - SW 1013,4 6 0 0,2
15.01.2019 04:00:00 6,6 5,6 - - 22 12 - - SSW 1014,1 5 0 0,0
15.01.2019 03:00:00 6,6 5,5 - - 24 13 - - SW 1014,7 40 0 0,0
15.01.2019 02:00:00 6,5 5,4 - - 22 12 - - WSW 1014,8 40 0 0,0
15.01.2019 01:00:00 6,3 5,7 - - 22 12 - - SW 1015,2 21 0 0,0
15.01.2019 00:00:00 6,1 5,5 - - 18 10 - - SSW 1015,5 6 - 0,2
14.01.2019 23:00:00 5,5 5,1 - - 15 8 - - SSW 1016,2 6 0 0,0
14.01.2019 22:00:00 5,3 4,8 - - 16 9 - - SSW 1016,9 4,9 0 0,2
14.01.2019 21:00:00 5,5 4,1 - - 18 10 - - SW 1017,3 35 0 0,0
14.01.2019 20:00:00 5,6 4,2 - - 16 9 - - SW 1017,6 45 0 0,0
14.01.2019 19:00:00 5,6 3,9 - - 16 9 - - SW 1018,1 30 0 0,0
14.01.2019 18:00:00 5,5 3,5 - - 16 9 - - WSW 1018,3 50 0 0,0
14.01.2019 17:00:00 5,3 3,2 - - 11 6 - - SW 1018,4 9 0 0,0
14.01.2019 16:00:00 5,0 2,9 - - 9 5 - - SW 1019,0 30 18 0,0
14.01.2019 15:00:00 5,6 3,4 - - 13 7 - - WSW 1018,9 35 6 0,0
14.01.2019 14:00:00 5,7 3,8 - - 4 2 - - SW 1019,2 45 0 0,0
14.01.2019 13:00:00 6,3 1,7 - - 9 5 - - WNW 1019,5 40 12 0,0
14.01.2019 12:00:00 6,3 2,7 - - 9 5 - - W 1019,5 35 0 0,0
14.01.2019 11:00:00 4,5 2,5 - - 2 1 - - W 1019,9 45 6 0,0
14.01.2019 10:00:00 2,7 1,1 - - 2 1 - - NW 1019,9 35 6 0,0
14.01.2019 09:00:00 2,7 1,1 6,0 6,9 4 2 - - SSW 1019,4 40 0 0,0
14.01.2019 08:00:00 3,3 1,3 - - 8 4 - - S 1018,6 40 0 0,0
14.01.2019 07:00:00 3,4 1,4 - - 15 8 - - WNW 1017,7 35 0 0,0
14.01.2019 06:00:00 3,7 1,3 - - 16 9 - - W 1017,3 30 0 0,0
14.01.2019 05:00:00 4,6 1,3 - - 11 6 - - WNW 1016,6 45 0 0,0
14.01.2019 04:00:00 3,8 1,0 - - 11 6 - - WNW 1016,4 50 0 0,0
14.01.2019 03:00:00 4,4 0,8 - - 18 10 - - WNW 1015,2 45 0 0,0
14.01.2019 02:00:00 4,5 1,2 - - 24 13 52 28 WNW 1014,0 40 0 0,0
14.01.2019 01:00:00 5,0 1,5 - - 37 20 57 31 WNW 1012,7 45 0 0,0
14.01.2019 00:00:00 5,0 1,5 - - 35 19 57 31 WNW 1011,8 40 - 0,0
13.01.2019 23:00:00 5,3 1,6 - - 29 16 57 31 WNW 1011,3 35 0 0,0
13.01.2019 22:00:00 6,0 1,9 - - 31 17 65 35 WNW 1011,0 27 0 0,0
13.01.2019 21:00:00 6,1 1,8 - - 35 19 59 32 WNW 1010,0 21 0 0,0
13.01.2019 20:00:00 5,5 2,2 - - 35 19 63 34 WNW 1009,1 23 0 0,0
13.01.2019 19:00:00 5,8 2,0 - - 37 20 59 32 WNW 1008,4 26 0 0,0
13.01.2019 18:00:00 5,8 1,7 - - 35 19 70 38 WNW 1007,7 30 0 0,0
13.01.2019 17:00:00 5,9 3,2 - - 34 18 63 34 WNW 1007,4 7 0 0,0
13.01.2019 16:00:00 6,5 2,1 - - 42 23 72 39 WNW 1006,7 27 6 0,0
13.01.2019 15:00:00 6,7 2,6 - - 42 23 68 37 WNW 1006,1 27 18 0,0
13.01.2019 14:00:00 7,3 1,8 - - 46 25 68 37 WNW 1006,2 20 36 0,0
13.01.2019 13:00:00 7,7 2,3 - - 39 21 74 40 WNW 1006,5 29 30 0,0
13.01.2019 12:00:00 8,4 3,2 - - 42 23 78 42 WNW 1006,3 16 24 0,0
13.01.2019 11:00:00 8,7 4,4 - - 41 22 70 38 WNW 1006,5 22 12 0,0
13.01.2019 10:00:00 8,7 4,9 - - 37 20 70 38 W 1006,5 30 0 0,0
13.01.2019 09:00:00 9,2 5,4 5,7 6,7 37 20 70 38 W 1006,7 50 0 0,0

tt = temperature
td = dewpoint
tt -20cm = temperature -20cm
tt -100cm = temperature -100cm
ff = wind speed
fx = gusts
dd = wind direction
ppp = reduced air pressure
vv = visibility
sd = sunshine duration
rr = precipitation

Next stations